New Orleans, LA

3:15 PM CST on December 09, 2016 (GMT -0600)
Lakefront

Weather History for KNEW - November, 2013

Change the Weather History Date:

Friday, November 22, 2013

  Actual Average Record
Temperature  
Mean Temperature 72 °F 61 °F  
Max Temperature 79 °F 70 °F 86 °F (1973)
Min Temperature 64 °F 52 °F 33 °F (2000)
Degree Days  
Heating Degree Days 0 6  
Month to date heating degree days 66 85  
Since 1 July heating degree days 71 110  
Cooling Degree Days 7 2  
Month to date cooling degree days 51 58  
Year to date cooling degree days 2959 2967  
Growing Degree Days 18 (Base 50)    
Moisture  
Dew Point 64 °F    
Average Humidity 87    
Maximum Humidity 100    
Minimum Humidity 73    
Precipitation  
Precipitation T in 0.15 in 2.05 in (1953)
Month to date precipitation 0.59 3.23  
Year to date precipitation 61.87 55.95  
Snow  
Snow 0.00 in - - ()
Month to date snowfall 0.0  
Since 1 July snowfall 0.0  
Since 1 September snowfall 0.0  
Snow Depth 0.00 in    
Sea Level Pressure  
Sea Level Pressure 30.17 in    
Wind  
Wind Speed 8 mph (NE)    
Max Wind Speed 17 mph    
Max Gust Speed 22 mph    
Visibility 6 miles    
Events Fog , Rain    
T = Trace of Precipitation, MM = Missing Value Source: NWS Daily Summary

Daily Weather History Graph

Daily Weather History Graph

Search for Another Location

Airport or City:

Trip Planner

Search our weather history database for the weather conditions in past years. The results will help you decide how hot, cold, wet, or windy it might be!

Date:

Astronomy

Nov. 22, 2013 Rise Set
Actual Time 6:31 AM CST 5:01 PM CST
Civil Twilight 6:05 AM CST 5:26 PM CST
Nautical Twilight 5:36 AM CST 5:56 PM CST
Astronomical Twilight 5:07 AM CST 6:24 PM CST
Moon 9:27 PM CST (11/22) 10:19 AM CST (11/22)
Length of Visible Light 11h 21m
Length of Day
10h 29m
Waning Gibbous, 78% of the Moon is Illuminated
Nov 22
Waning Gibbous
Nov 25
Last Quarter
Dec 2
New
Dec 9
First Quarter
Dec 17
Full

Hourly Weather History & Observations

Time (CST) Temp. Dew Point Humidity Pressure Visibility Wind Dir Wind Speed Gust Speed Precip Events Conditions
12:28 AM 64.4 °F 62.6 °F 94% 30.18 in 8.0 mi East 12.7 mph - N/A   Overcast
12:53 AM 66.0 °F 62.1 °F 87% 30.16 in 9.0 mi East 11.5 mph - N/A   Overcast
1:53 AM 66.0 °F 62.1 °F 87% 30.16 in 8.0 mi East 9.2 mph - N/A   Mostly Cloudy
2:05 AM 66.2 °F 62.6 °F 88% 30.17 in 8.0 mi East 10.4 mph - N/A   Scattered Clouds
2:53 AM 66.0 °F 63.0 °F 90% 30.15 in 8.0 mi ESE 12.7 mph - N/A   Scattered Clouds
3:53 AM 66.0 °F 62.1 °F 87% 30.14 in 9.0 mi ESE 12.7 mph - N/A   Partly Cloudy
4:53 AM 64.0 °F 62.1 °F 93% 30.15 in 8.0 mi East 8.1 mph - N/A   Clear
5:30 AM 64.4 °F 62.6 °F 94% 30.18 in 7.0 mi East 5.8 mph - N/A   Overcast
5:53 AM 64.0 °F 62.1 °F 93% 30.16 in 7.0 mi East 8.1 mph - N/A   Mostly Cloudy
6:53 AM 64.0 °F 62.1 °F 93% 30.18 in 6.0 mi East 5.8 mph - N/A   Scattered Clouds
7:02 AM 64.4 °F 62.6 °F 94% 30.20 in 6.0 mi East 6.9 mph - N/A   Mostly Cloudy
7:37 AM 64.4 °F 62.6 °F 94% 30.22 in 7.0 mi NNE 4.6 mph - N/A   Scattered Clouds
7:50 AM 64.4 °F 62.6 °F 94% 30.22 in 6.0 mi Calm Calm - N/A   Mostly Cloudy
7:53 AM 64.9 °F 62.1 °F 90% 30.20 in 6.0 mi East 3.5 mph - N/A   Overcast
8:53 AM 70.0 °F 64.9 °F 84% 30.19 in 8.0 mi ESE 9.2 mph - N/A   Scattered Clouds
9:53 AM 73.9 °F 66.0 °F 76% 30.19 in 10.0 mi East 5.8 mph - N/A   Scattered Clouds
10:53 AM 72.0 °F 64.9 °F 78% 30.19 in 9.0 mi NE 8.1 mph - N/A   Clear
11:53 AM 70.0 °F 64.0 °F 81% 30.19 in 9.0 mi North 9.2 mph - N/A   Overcast
12:53 PM 69.1 °F 64.0 °F 84% 30.17 in 8.0 mi North 9.2 mph - N/A   Overcast
1:06 PM 69.8 °F 64.4 °F 83% 30.19 in 8.0 mi NNW 11.5 mph - N/A   Overcast
1:15 PM 66.2 °F 64.4 °F 94% 30.19 in 5.0 mi NNW 17.3 mph - N/A   Overcast
1:24 PM 66.2 °F 64.4 °F 94% 30.19 in 3.0 mi NNW 17.3 mph - 0.00 in Rain Light Rain
1:37 PM 66.2 °F 64.4 °F 94% 30.18 in 3.0 mi North 16.1 mph - 0.01 in Rain Light Rain
1:53 PM 66.0 °F 64.0 °F 93% 30.16 in 6.0 mi NNE 20.7 mph - 0.01 in Rain Light Rain
2:00 PM 66.2 °F 64.4 °F 94% 30.18 in 9.0 mi NNE 19.6 mph - 0.00 in   Overcast
2:43 PM 66.2 °F 62.6 °F 88% 30.17 in 9.0 mi NE 13.8 mph - 0.02 in Rain Light Rain
2:53 PM 66.0 °F 63.0 °F 90% 30.15 in 9.0 mi ENE 15.0 mph - 0.03 in Rain Light Rain
3:53 PM 66.9 °F 62.1 °F 84% 30.14 in 10.0 mi East 10.4 mph - 0.00 in   Overcast
4:53 PM 69.1 °F 66.0 °F 90% 30.13 in 10.0 mi ESE 9.2 mph - N/A   Partly Cloudy
5:28 PM 69.8 °F 66.2 °F 88% 30.14 in 10.0 mi SE 8.1 mph - N/A   Partly Cloudy
5:53 PM 68.0 °F 66.0 °F 93% 30.12 in 7.0 mi ESE 6.9 mph - N/A   Scattered Clouds
6:04 PM 68.0 °F 66.2 °F 94% 30.15 in 7.0 mi ESE 4.6 mph - N/A   Mostly Cloudy
6:53 PM 68.0 °F 66.9 °F 96% 30.13 in 2.5 mi SE 3.5 mph - N/A   Overcast
7:01 PM 68.0 °F 66.2 °F 94% 30.15 in 1.8 mi Calm Calm - N/A   Overcast
7:09 PM 66.2 °F 64.4 °F 94% 30.16 in 0.2 mi North 11.5 mph - N/A Fog Fog
7:19 PM 64.4 °F 62.6 °F 94% 30.17 in 0.5 mi North 11.5 mph - N/A Fog Fog
7:35 PM 64.4 °F 64.4 °F 100% 30.17 in 0.2 mi NNE 12.7 mph - N/A Fog Fog
7:53 PM 64.9 °F 64.0 °F 97% 30.16 in 0.5 mi North 11.5 mph - N/A Fog Fog
8:03 PM 64.4 °F 64.4 °F 100% 30.18 in 2.0 mi NNE 9.2 mph - N/A   Overcast
8:16 PM 64.4 °F 64.4 °F 100% 30.19 in 1.5 mi North 9.2 mph - N/A   Overcast
8:22 PM 64.4 °F 64.4 °F 100% 30.19 in 3.0 mi North 8.1 mph - N/A   Overcast
8:49 PM 64.4 °F 64.4 °F 100% 30.19 in 2.0 mi NNE 8.1 mph - N/A   Overcast
8:53 PM 64.9 °F 64.0 °F 97% 30.17 in 2.0 mi NNE 8.1 mph - N/A   Overcast
9:04 PM 64.4 °F 64.4 °F 100% 30.19 in 1.5 mi NE 10.4 mph - N/A   Overcast
9:53 PM 64.9 °F 64.0 °F 97% 30.17 in 1.0 mi NE 8.1 mph - N/A   Mist
10:11 PM 64.4 °F 64.4 °F 100% 30.19 in 0.2 mi NNE 9.2 mph - N/A Fog Fog
10:30 PM 64.4 °F 64.4 °F 100% 30.19 in 0.5 mi NNE 11.5 mph - N/A Fog Fog
10:39 PM 64.4 °F 64.4 °F 100% 30.19 in 2.5 mi NNE 10.4 mph - N/A   Overcast
10:46 PM 64.4 °F 64.4 °F 100% 30.19 in 5.0 mi NNE 9.2 mph - N/A   Overcast
10:53 PM 64.9 °F 64.0 °F 97% 30.17 in 5.0 mi NNE 9.2 mph - N/A   Overcast
11:01 PM 64.4 °F 64.4 °F 100% 30.18 in 6.0 mi NE 8.1 mph - N/A   Overcast
11:33 PM 64.4 °F 62.6 °F 94% 30.18 in 9.0 mi NNE 10.4 mph - N/A   Overcast
11:53 PM 64.0 °F 63.0 °F 96% 30.17 in 8.0 mi NE 11.5 mph - N/A   Overcast